Погода в Новом Быте

Россия / Владимирская область     55°58′27″N   41°37′20″E
темп.,
°C
ветер,
м/с
пор.,
м/с
влажн.,
%
обл.,
%
осадки,
мм/ч
давл.,
гПа
погр.,
м
7 мая, пт
пт700:00+10юз41083100 0.1 1008780
03:00+9юз3694100 2.1 1008338
06:00+8юз3691100 1.8 1009432
09:00+9зюз2482100 2.4 1010503
12:00+12зюз365267 0.1 10111860
15:00+14з573379 0.1 10112853
18:00+13з35455 0.0 1012671
21:00+7юз22645 0.0 101521
8 мая, сб
сб800:00+6ююз2370100 0.0 101547
03:00+5ююв3574100 0.0 101689
06:00+6ююв411719 0.0 1015331
09:00+11ююв61156100 0.0 10141002
12:00+13ююв71355100 0.1 10111434
15:00+13юв71454100 0.1 10071585
18:00+10ююв71687100 0.9 10061221
21:00+10ю61395100 1.9 1005867
9 мая, вс
вс900:00+10ю41096100 0.1 1005704
03:00+8юз51093100 0.4 1007660
06:00+7зюз6989100 0.1 1008855
09:00+4зсз51092100 0.1 1012846
12:00+7зсз5875100 0.0 10161175
15:00+8сз5761100 0.1 10191362
18:00+8сз3763100 0.0 10211316
21:00+4зсз227989 0.0 102317
10 мая, пн
пн1000:00+3зсз23880 0.0 102552
03:00+2сз22870 0.0 102838
06:00+5ссз13755 0.0 103099
09:00+12с12455 0.0 1030813
12:00+15ссз12335 0.0 10301599
15:00+16сз22315 0.0 10301900
18:00+14сз23465 0.0 1030271
21:00+8з00605 0.0 103110
11 мая, вт
вт1100:00+7ююв11645 0.0 103210
03:00+6ююв116951 0.0 103310
06:00+9ю006589 0.0 103336
09:00+15вюв224568 0.0 1033596
12:00+18юв233999 0.0 10321225
15:00+19вюв22395 0.0 10311271
18:00+17вюв245582 0.0 1030177
21:00+11вюв237855 0.0 103136